#�ϑ�����,���ϕ���,���ϕ���,�ő啗��,�ő啗����������,�ő�u�ԕ���,�ő�u�ԕ�����������
#(�N����),(m/s)   ,(16����),(m/s)   ,(16����)        ,(m/s)       ,(16����)            
2016/5/4 0:01,2.8,10,2.8,10,6.1,10
2016/5/4 0:02,2.7,10,2.8,10,4.4,10
2016/5/4 0:03,2.7,10,2.7,10,3.5,9
2016/5/4 0:04,2.5,10,2.7,10,3.8,9
2016/5/4 0:05,2.5,10,2.5,10,3.3,11
2016/5/4 0:06,2.4,10,2.5,10,3.9,11
2016/5/4 0:07,2.3,10,2.3,10,4.4,9
2016/5/4 0:08,2.3,10,2.3,10,4.2,8
2016/5/4 0:09,2.5,10,2.5,10,4.8,11
2016/5/4 0:10,2.4,10,2.5,10,2,7
2016/5/4 0:11,2.3,10,2.4,10,4.4,11
2016/5/4 0:12,2.2,10,2.3,10,4.9,9
2016/5/4 0:13,2.2,10,2.2,10,4.2,11
2016/5/4 0:14,2.3,10,2.3,10,4.1,10
2016/5/4 0:15,2.3,10,2.3,10,4.4,10
2016/5/4 0:16,2.2,10,2.3,10,3.1,9
2016/5/4 0:17,2.2,10,2.2,10,4.1,12
2016/5/4 0:18,2.3,10,2.3,10,4.4,10
2016/5/4 0:19,2.2,10,2.3,10,3.3,11
2016/5/4 0:20,2.3,10,2.3,10,2.7,10
2016/5/4 0:21,2.2,10,2.3,10,2.2,10
2016/5/4 0:22,2.1,10,2.2,10,2.7,10
2016/5/4 0:23,2,10,2.1,10,1.9,11
2016/5/4 0:24,1.8,10,1.9,10,2.4,10
2016/5/4 0:25,1.8,10,1.8,10,3.7,9
2016/5/4 0:26,1.8,10,1.8,10,2.6,9
2016/5/4 0:27,1.7,10,1.8,10,2.6,8
2016/5/4 0:28,1.5,10,1.7,10,2.5,9
2016/5/4 0:29,1.4,10,1.5,10,1.6,8
2016/5/4 0:30,1.4,10,1.4,10,2.4,11
2016/5/4 0:31,1.3,10,1.4,10,1.9,8
2016/5/4 0:32,1.3,10,1.3,10,2.6,10
2016/5/4 0:33,1.4,10,1.4,10,2.5,11
2016/5/4 0:34,1.4,10,1.4,10,2.6,9
2016/5/4 0:35,1.3,10,1.4,10,2.5,11
2016/5/4 0:36,1.4,10,1.4,10,3.8,9
2016/5/4 0:37,1.4,10,1.4,10,2.2,10
2016/5/4 0:38,1.4,10,1.4,10,1.8,11
2016/5/4 0:39,1.4,11,1.4,10,1.8,10
2016/5/4 0:40,1.4,11,1.4,10,2.2,13
2016/5/4 0:41,1.5,11,1.5,11,1.8,12
2016/5/4 0:42,1.4,11,1.5,11,2.4,10
2016/5/4 0:43,1.4,11,1.4,11,2.1,10
2016/5/4 0:44,1.5,11,1.5,11,3.2,10
2016/5/4 0:45,1.6,11,1.6,11,3,10
2016/5/4 0:46,1.5,11,1.6,11,2.5,11
2016/5/4 0:47,1.5,11,1.5,11,2.2,8
2016/5/4 0:48,1.5,11,1.5,11,2.5,10
2016/5/4 0:49,1.5,11,1.5,11,3,9
2016/5/4 0:50,1.5,10,1.6,11,2.2,10
2016/5/4 0:51,1.5,10,1.5,11,2.9,10
2016/5/4 0:52,1.6,10,1.6,11,3.2,10
2016/5/4 0:53,1.7,10,1.7,10,5.5,10
2016/5/4 0:54,1.7,10,1.7,10,3.8,12
2016/5/4 0:55,1.8,10,1.8,10,5.4,8
2016/5/4 0:56,1.9,10,1.9,10,4.2,9
2016/5/4 0:57,2,10,2,10,3.3,10
2016/5/4 0:58,2.1,10,2.1,10,2.6,10
2016/5/4 0:59,2.2,11,2.2,11,4.8,12
2016/5/4 1:00,2.4,11,2.4,11,4.8,12
2016/5/4 1:01,2.5,11,2.5,11,5.6,10
2016/5/4 1:02,2.5,11,2.5,11,3.2,11
2016/5/4 1:03,2.5,11,2.6,11,6.7,10
2016/5/4 1:04,2.6,11,2.6,11,5.4,10
2016/5/4 1:05,2.7,11,2.7,11,5.6,10
2016/5/4 1:06,3,11,3,11,8.2,10
2016/5/4 1:07,3.3,10,3.3,10,8.3,10
2016/5/4 1:08,3.3,11,3.4,10,7.5,9
2016/5/4 1:09,3.4,10,3.4,10,5.8,9
2016/5/4 1:10,3.3,10,3.4,10,4.4,9
2016/5/4 1:11,3.2,10,3.3,10,3.3,8
2016/5/4 1:12,3.3,10,3.3,10,4.7,12
2016/5/4 1:13,3.2,10,3.3,10,4.1,11
2016/5/4 1:14,3.2,10,3.2,10,3.7,12
2016/5/4 1:15,2.9,10,3.1,10,2.9,9
2016/5/4 1:16,2.5,11,2.9,10,2.1,11
2016/5/4 1:17,2.1,11,2.4,10,3.1,14
2016/5/4 1:18,1.9,11,2,11,0.8,12
2016/5/4 1:19,1.7,12,1.9,10,2.6,15
2016/5/4 1:20,1.6,12,1.7,10,3.5,14
2016/5/4 1:21,1.5,12,1.6,10,2.1,15
2016/5/4 1:22,1.4,13,1.5,10,2.5,12
2016/5/4 1:23,1.3,13,1.4,10,3,11
2016/5/4 1:24,1.3,13,1.3,10,3.3,12
2016/5/4 1:25,1.5,13,1.5,10,5.7,12
2016/5/4 1:26,1.5,13,1.5,11,3.2,12
2016/5/4 1:27,1.4,13,1.5,11,1.5,13
2016/5/4 1:28,1.6,13,1.6,11,2.1,12
2016/5/4 1:29,1.5,13,1.6,12,2.2,13
2016/5/4 1:30,1.5,13,1.5,12,2,15
2016/5/4 1:31,1.4,13,1.5,13,1.8,13
2016/5/4 1:32,1.4,13,1.4,13,0.9,16
2016/5/4 1:33,1.4,13,1.4,13,3.2,15
2016/5/4 1:34,1.2,13,1.3,13,1.6,14
2016/5/4 1:35,1,13,1.2,13,2.2,12
2016/5/4 1:36,1,13,1,13,2,9
2016/5/4 1:37,1.1,13,1.1,13,3.3,10
2016/5/4 1:38,1.1,13,1.1,13,3.5,9
2016/5/4 1:39,1.1,12,1.1,13,2.1,12
2016/5/4 1:40,1.2,12,1.2,13,2.1,11
2016/5/4 1:41,1.3,12,1.3,13,2.4,11
2016/5/4 1:42,1.4,12,1.4,13,2.1,11
2016/5/4 1:43,1.5,11,1.5,11,5.5,12
2016/5/4 1:44,1.5,11,1.5,11,2.4,8
2016/5/4 1:45,1.5,11,1.5,11,1.1,7
2016/5/4 1:46,1.4,11,1.5,11,1.4,10
2016/5/4 1:47,1.4,11,1.4,11,2.6,11
2016/5/4 1:48,1.4,11,1.4,11,1.8,10
2016/5/4 1:49,1.3,11,1.4,11,1.3,11
2016/5/4 1:50,1.2,11,1.3,11,0.8,13
2016/5/4 1:51,1.1,11,1.2,11,0.9,16
2016/5/4 1:52,1,11,1.1,11,0.9,15
2016/5/4 1:53,0.8,12,1,11,1.3,16
2016/5/4 1:54,0.7,13,0.8,11,1.5,16
2016/5/4 1:55,0.8,13,0.8,11,1.1,15
2016/5/4 1:56,0.8,14,0.8,11,1.5,15
2016/5/4 1:57,0.8,14,0.8,11,1.3,15
2016/5/4 1:58,0.7,15,0.8,11,1.1,15
2016/5/4 1:59,0.7,15,0.7,11,0.5,16
2016/5/4 2:00,0.7,15,0.7,11,0.8,16
2016/5/4 2:01,0.7,16,0.7,11,1,16
2016/5/4 2:02,0.8,15,0.8,11,1.6,16
2016/5/4 2:03,0.8,15,0.8,12,2,15
2016/5/4 2:04,0.9,15,0.9,15,2.7,15
2016/5/4 2:05,1,15,1,15,2.7,15
2016/5/4 2:06,1.1,15,1.1,15,2.5,16
2016/5/4 2:07,1.1,16,1.1,15,2.2,16
2016/5/4 2:08,1.2,16,1.2,16,2.9,16
2016/5/4 2:09,1.3,15,1.3,16,2.4,15
2016/5/4 2:10,1.4,16,1.4,15,1.8,16
2016/5/4 2:11,1.4,15,1.4,15,2.1,16
2016/5/4 2:12,1.5,15,1.5,15,2.6,15
2016/5/4 2:13,1.6,15,1.6,15,2.9,15
2016/5/4 2:14,1.5,15,1.6,15,2.5,15
2016/5/4 2:15,1.5,15,1.5,15,2.7,15
2016/5/4 2:16,1.5,15,1.5,15,2.4,15
2016/5/4 2:17,1.5,15,1.5,15,2.5,16
2016/5/4 2:18,1.5,15,1.5,15,2.4,16
2016/5/4 2:19,1.5,15,1.5,15,1.9,16
2016/5/4 2:20,1.4,15,1.4,15,0.8,11
2016/5/4 2:21,1.4,15,1.4,15,1.1,1
2016/5/4 2:22,1.3,16,1.4,15,1.5,2
2016/5/4 2:23,1.2,16,1.3,15,1.9,2
2016/5/4 2:24,1.3,16,1.3,15,1.8,2
2016/5/4 2:25,1.2,16,1.3,15,1.8,1
2016/5/4 2:26,1.2,16,1.2,15,1.9,1
2016/5/4 2:27,1.2,1,1.2,15,2.1,16
2016/5/4 2:28,1.1,1,1.2,15,2.1,16
2016/5/4 2:29,1.2,1,1.2,15,2.2,16
2016/5/4 2:30,1.3,1,1.3,15,1.8,15
2016/5/4 2:31,1.3,1,1.3,15,2.2,16
2016/5/4 2:32,1.4,1,1.4,1,2.4,15
2016/5/4 2:33,1.5,16,1.5,16,2.5,16
2016/5/4 2:34,1.5,16,1.5,16,2.4,1
2016/5/4 2:35,1.6,16,1.6,16,2.9,16
2016/5/4 2:36,1.5,16,1.6,16,2.1,16
2016/5/4 2:37,1.5,16,1.5,16,2.6,14
2016/5/4 2:38,1.5,16,1.5,16,2.5,15
2016/5/4 2:39,1.6,16,1.6,16,2.9,15
2016/5/4 2:40,1.7,16,1.7,16,2.6,16
2016/5/4 2:41,1.7,16,1.7,16,2.9,16
2016/5/4 2:42,1.8,16,1.8,16,3.6,16
2016/5/4 2:43,1.8,16,1.8,16,3.6,16
2016/5/4 2:44,1.8,16,1.9,16,3.1,16
2016/5/4 2:45,1.8,15,1.8,16,2.9,15
2016/5/4 2:46,1.8,15,1.8,16,2.1,14
2016/5/4 2:47,1.7,15,1.8,16,1.3,16
2016/5/4 2:48,1.6,15,1.7,16,0.8,1
2016/5/4 2:49,1.5,16,1.6,16,1.5,3
2016/5/4 2:50,1.4,16,1.5,16,1.6,3
2016/5/4 2:51,1.3,16,1.5,16,1.6,3
2016/5/4 2:52,1.2,1,1.3,16,1.3,2
2016/5/4 2:53,1.1,1,1.2,16,2.2,1
2016/5/4 2:54,1.1,1,1.1,15,1.9,1
2016/5/4 2:55,1,1,1.1,15,1.3,16
2016/5/4 2:56,1,1,1,15,2.4,16
2016/5/4 2:57,1.1,2,1.1,15,2.6,16
2016/5/4 2:58,1.3,2,1.3,15,2.1,1
2016/5/4 2:59,1.3,2,1.3,16,2.1,2
2016/5/4 3:00,1.4,1,1.4,16,2.6,1
2016/5/4 3:01,1.5,1,1.5,1,2.7,1
2016/5/4 3:02,1.5,1,1.5,1,1.6,1
2016/5/4 3:03,1.5,1,1.5,1,1.4,1
2016/5/4 3:04,1.4,1,1.5,1,1.5,16
2016/5/4 3:05,1.5,1,1.5,1,1.6,16
2016/5/4 3:06,1.5,1,1.5,1,1.6,1
2016/5/4 3:07,1.4,1,1.5,1,1.6,1
2016/5/4 3:08,1.4,1,1.4,1,2.5,16
2016/5/4 3:09,1.4,1,1.4,1,2.2,1
2016/5/4 3:10,1.3,16,1.4,1,1.5,1
2016/5/4 3:11,1.3,16,1.3,1,2.6,16
2016/5/4 3:12,1.4,16,1.4,1,2.5,1
2016/5/4 3:13,1.4,16,1.4,1,1.6,1
2016/5/4 3:14,1.5,16,1.5,1,2.1,16
2016/5/4 3:15,1.6,16,1.6,16,2.7,16
2016/5/4 3:16,1.7,16,1.7,16,2.7,15
2016/5/4 3:17,1.7,16,1.7,16,2.7,15
2016/5/4 3:18,1.6,16,1.7,16,1.6,16
2016/5/4 3:19,1.5,16,1.6,16,0.9,14
2016/5/4 3:20,1.5,16,1.5,16,2,16
2016/5/4 3:21,1.4,16,1.5,16,2.2,16
2016/5/4 3:22,1.2,16,1.4,16,1,16
2016/5/4 3:23,1.2,16,1.2,16,1.3,1
2016/5/4 3:24,1.1,16,1.2,16,1.1,2
2016/5/4 3:25,1.1,16,1.1,16,2.2,1
2016/5/4 3:26,1,16,1.1,16,2.9,16
2016/5/4 3:27,1,16,1,16,2.7,16
2016/5/4 3:28,0.9,16,0.9,16,0.5,1
2016/5/4 3:29,1,16,1,16,2,15
2016/5/4 3:30,1,16,1,16,1.9,16
2016/5/4 3:31,1,16,1,16,2.5,16
2016/5/4 3:32,1.1,16,1.1,16,2,11
2016/5/4 3:33,1.1,15,1.1,16,1.4,16
2016/5/4 3:34,1.3,15,1.3,15,3.5,15
2016/5/4 3:35,1.4,15,1.4,15,3.5,15
2016/5/4 3:36,1.5,15,1.5,15,3.5,16
2016/5/4 3:37,1.7,15,1.7,15,3.9,16
2016/5/4 3:38,1.9,15,1.9,15,4.7,15
2016/5/4 3:39,2.1,15,2.1,15,3.5,16
2016/5/4 3:40,2.1,15,2.1,15,3.5,15
2016/5/4 3:41,2.1,15,2.1,15,2.9,15
2016/5/4 3:42,2.1,15,2.1,15,2.5,16
2016/5/4 3:43,2.2,16,2.2,15,2.6,16
2016/5/4 3:44,2.1,16,2.2,15,2.7,15
2016/5/4 3:45,2.1,16,2.1,15,3,15
2016/5/4 3:46,2,16,2.1,15,3,16
2016/5/4 3:47,2,16,2,15,3.9,15
2016/5/4 3:48,1.9,15,2,15,3.2,15
2016/5/4 3:49,1.9,15,1.9,15,3.1,15
2016/5/4 3:50,1.8,15,1.9,15,2.1,15
2016/5/4 3:51,1.7,15,1.8,15,1.6,14
2016/5/4 3:52,1.7,15,1.8,15,1.3,15
2016/5/4 3:53,1.7,15,1.7,16,1.8,16
2016/5/4 3:54,1.6,15,1.7,16,2.4,15
2016/5/4 3:55,1.5,15,1.6,16,2.6,15
2016/5/4 3:56,1.5,15,1.5,16,2.7,15
2016/5/4 3:57,1.5,15,1.5,15,3.1,15
2016/5/4 3:58,1.4,15,1.5,15,2.2,16
2016/5/4 3:59,1.3,15,1.3,15,2.5,15
2016/5/4 4:00,1.3,15,1.3,15,2.5,15
2016/5/4 4:01,1.3,15,1.3,15,2.5,15
2016/5/4 4:02,1.3,15,1.3,15,1,16
2016/5/4 4:03,1.2,15,1.3,15,0.8,13
2016/5/4 4:04,1.2,15,1.2,15,2.1,15
2016/5/4 4:05,1.2,15,1.2,15,2.2,14
2016/5/4 4:06,1.1,15,1.2,15,2.1,16
2016/5/4 4:07,1,15,1.1,15,1.1,2
2016/5/4 4:08,1,15,1,15,2.6,15
2016/5/4 4:09,1.1,15,1.1,15,2.7,15
2016/5/4 4:10,1.1,15,1.1,15,2.7,15
2016/5/4 4:11,1.2,15,1.2,15,2.6,15
2016/5/4 4:12,1.4,15,1.4,15,2.9,15
2016/5/4 4:13,1.5,15,1.5,15,2.5,15
2016/5/4 4:14,1.5,15,1.6,15,1.6,15
2016/5/4 4:15,1.5,15,1.5,15,2.4,15
2016/5/4 4:16,1.6,15,1.6,15,3.3,15
2016/5/4 4:17,1.7,15,1.7,15,2.9,15
2016/5/4 4:18,1.8,15,1.8,15,3,16
2016/5/4 4:19,1.9,15,1.9,15,2.7,16
2016/5/4 4:20,1.8,15,1.9,15,2.6,16
2016/5/4 4:21,1.8,15,1.8,15,3,16
2016/5/4 4:22,1.8,15,1.8,15,2.7,15
2016/5/4 4:23,1.9,15,1.9,15,3.2,15
2016/5/4 4:24,2,15,2,15,2.7,16
2016/5/4 4:25,2.1,15,2.1,15,2.9,16
2016/5/4 4:26,2.1,15,2.1,15,2.6,1
2016/5/4 4:27,2.1,16,2.1,15,2.7,16
2016/5/4 4:28,2.1,16,2.1,15,3.2,1
2016/5/4 4:29,2.1,16,2.1,15,2.6,1
2016/5/4 4:30,2.1,16,2.1,15,2.6,16
2016/5/4 4:31,2.1,16,2.1,15,3,1
2016/5/4 4:32,2,16,2.1,15,2.2,16
2016/5/4 4:33,1.9,16,2,15,2,1
2016/5/4 4:34,1.8,16,1.9,15,2,16
2016/5/4 4:35,1.8,16,1.8,15,2.6,16
2016/5/4 4:36,1.9,16,1.9,15,3,1
2016/5/4 4:37,1.9,16,1.9,16,2.9,1
2016/5/4 4:38,1.8,16,1.9,16,3.5,16
2016/5/4 4:39,1.9,16,1.9,16,3.2,1
2016/5/4 4:40,2,16,2,16,3,1
2016/5/4 4:41,2,16,2,16,3,1
2016/5/4 4:42,2.1,16,2.1,16,3.7,16
2016/5/4 4:43,2.2,16,2.2,16,3.1,16
2016/5/4 4:44,2.2,16,2.2,16,2.7,16
2016/5/4 4:45,2.2,16,2.2,16,2.7,16
2016/5/4 4:46,2.2,16,2.2,16,2.5,16
2016/5/4 4:47,2.1,16,2.2,16,2.6,16
2016/5/4 4:48,2.1,16,2.1,16,2.9,15
2016/5/4 4:49,2,16,2.1,16,2.1,16
2016/5/4 4:50,1.9,16,2,16,2.2,16
2016/5/4 4:51,1.9,16,1.9,16,2.9,16
2016/5/4 4:52,1.8,16,1.9,16,2.6,15
2016/5/4 4:53,1.8,16,1.8,16,2.1,1
2016/5/4 4:54,1.7,16,1.8,16,2.2,1
2016/5/4 4:55,1.7,16,1.7,16,2.1,16
2016/5/4 4:56,1.7,16,1.7,16,2.4,15
2016/5/4 4:57,1.7,16,1.7,16,3.5,15
2016/5/4 4:58,1.7,16,1.7,16,3.5,1
2016/5/4 4:59,1.7,16,1.7,16,2.4,15
2016/5/4 5:00,1.7,16,1.7,16,2.2,15
2016/5/4 5:01,1.7,16,1.7,16,1.8,15
2016/5/4 5:02,1.6,16,1.6,16,1.6,14
2016/5/4 5:03,1.6,16,1.6,16,2.2,15
2016/5/4 5:04,1.6,16,1.6,16,2,16
2016/5/4 5:05,1.5,15,1.6,16,1.9,14
2016/5/4 5:06,1.4,15,1.5,16,1.1,16
2016/5/4 5:07,1.3,15,1.4,16,1.6,16
2016/5/4 5:08,1.2,15,1.3,16,1,16
2016/5/4 5:09,1.1,15,1.2,16,1.1,16
2016/5/4 5:10,0.9,15,1.1,16,0.4,14
2016/5/4 5:11,0.9,15,0.9,16,1.3,15
2016/5/4 5:12,0.9,15,0.9,16,2,15
2016/5/4 5:13,1,15,1,16,2.6,15
2016/5/4 5:14,1.1,15,1.1,16,2.4,15
2016/5/4 5:15,1,15,1,15,1.6,14
2016/5/4 5:16,1,16,1,15,1,2
2016/5/4 5:17,1,16,1,15,1.3,3
2016/5/4 5:18,0.9,16,1,15,0.6,3
2016/5/4 5:19,0.9,1,0.9,15,1,3
2016/5/4 5:20,0.9,1,0.9,15,0.1,3
2016/5/4 5:21,0.9,1,0.9,15,1.5,9
2016/5/4 5:22,0.8,1,0.9,15,1.4,10
2016/5/4 5:23,0.7,2,0.8,15,1.4,4
2016/5/4 5:24,0.6,3,0.7,15,1.1,4
2016/5/4 5:25,0.5,4,0.6,15,0.8,4
2016/5/4 5:26,0.5,4,0.5,16,1.1,15
2016/5/4 5:27,0.6,3,0.6,16,1.5,16
2016/5/4 5:28,0.7,3,0.7,16,1.6,1
2016/5/4 5:29,0.8,2,0.8,1,1.5,1
2016/5/4 5:30,0.8,1,0.8,1,1.1,14
2016/5/4 5:31,0.9,1,0.9,1,1.8,14
2016/5/4 5:32,0.9,1,0.9,1,1.5,14
2016/5/4 5:33,0.9,16,0.9,1,1.3,1
2016/5/4 5:34,0.9,16,0.9,1,1.4,1
2016/5/4 5:35,0.9,16,0.9,1,1.1,16
2016/5/4 5:36,1,16,1,16,1.5,1
2016/5/4 5:37,1,16,1,16,1.3,1
2016/5/4 5:38,0.9,16,1,16,1.3,16
2016/5/4 5:39,0.9,16,0.9,16,1.5,2
2016/5/4 5:40,1.1,16,1.1,16,2.2,3
2016/5/4 5:41,1,1,1.1,16,1.8,3
2016/5/4 5:42,0.9,1,1,16,1.1,13
2016/5/4 5:43,1,1,1,16,1.4,15
2016/5/4 5:44,1,1,1,16,1.9,16
2016/5/4 5:45,1,1,1,16,1.3,16
2016/5/4 5:46,0.9,1,1,16,1.1,16
2016/5/4 5:47,0.9,1,0.9,16,1.1,1
2016/5/4 5:48,0.8,1,0.9,16,1.3,1
2016/5/4 5:49,0.8,1,0.8,16,1.3,16
2016/5/4 5:50,0.6,1,0.8,16,1,3
2016/5/4 5:51,0.6,1,0.6,1,0.6,1
2016/5/4 5:52,0.7,1,0.7,1,2.1,2
2016/5/4 5:53,0.8,1,0.8,1,2,2
2016/5/4 5:54,0.7,1,0.7,1,1.1,1
2016/5/4 5:55,0.7,1,0.7,1,1.3,16
2016/5/4 5:56,0.7,1,0.7,1,1.5,16
2016/5/4 5:57,0.7,1,0.7,1,1.1,1
2016/5/4 5:58,0.7,1,0.7,1,0.9,2
2016/5/4 5:59,0.6,1,0.7,1,0.8,1
2016/5/4 6:00,0.6,1,0.6,1,0.5,16
2016/5/4 6:01,0.7,1,0.7,1,0.9,3
2016/5/4 6:02,0.6,1,0.7,1,0.8,3
2016/5/4 6:03,0.5,1,0.6,1,1,15
2016/5/4 6:04,0.4,1,0.5,1,1.1,15
2016/5/4 6:05,0.4,1,0.4,1,0.5,1
2016/5/4 6:06,0.4,1,0.4,1,0.9,1
2016/5/4 6:07,0.4,1,0.4,1,1.4,1
2016/5/4 6:08,0.5,1,0.5,1,1.5,1
2016/5/4 6:09,0.6,1,0.6,1,2,1
2016/5/4 6:10,0.7,1,0.7,1,1.4,1
2016/5/4 6:11,0.7,1,0.7,1,1.1,16
2016/5/4 6:12,0.7,16,0.7,1,1.1,2
2016/5/4 6:13,0.8,16,0.8,16,1.5,1
2016/5/4 6:14,0.8,1,0.8,16,1.1,16
2016/5/4 6:15,0.9,1,0.9,1,0.9,15
2016/5/4 6:16,0.9,1,0.9,1,1.3,16
2016/5/4 6:17,0.9,1,0.9,1,1.5,15
2016/5/4 6:18,0.8,1,0.9,1,0.9,16
2016/5/4 6:19,0.7,1,0.8,1,1.5,1
2016/5/4 6:20,0.7,1,0.7,1,1.1,2
2016/5/4 6:21,0.8,1,0.8,1,1.5,1
2016/5/4 6:22,0.8,1,0.8,1,1.3,16
2016/5/4 6:23,0.8,1,0.8,1,1.4,16
2016/5/4 6:24,0.8,1,0.8,1,1.3,16
2016/5/4 6:25,0.8,1,0.8,1,1.3,1
2016/5/4 6:26,0.8,1,0.8,1,1.3,2
2016/5/4 6:27,0.8,1,0.8,1,1.6,1
2016/5/4 6:28,0.9,1,0.9,1,1.6,1
2016/5/4 6:29,0.9,1,0.9,1,2,2
2016/5/4 6:30,0.9,1,0.9,1,2,2
2016/5/4 6:31,1,1,1,1,2.1,2
2016/5/4 6:32,1,1,1,1,1.3,1
2016/5/4 6:33,1,1,1,1,2.4,3
2016/5/4 6:34,1.1,1,1.1,1,2.6,2
2016/5/4 6:35,1.2,1,1.2,1,2.7,1
2016/5/4 6:36,1.3,2,1.3,2,2.6,3
2016/5/4 6:37,1.4,2,1.4,2,2.7,3
2016/5/4 6:38,1.5,2,1.5,2,3.1,3
2016/5/4 6:39,1.5,2,1.6,2,3.2,3
2016/5/4 6:40,1.5,2,1.5,2,1.8,1
2016/5/4 6:41,1.6,2,1.6,2,3.5,2
2016/5/4 6:42,1.7,2,1.7,2,3.3,2
2016/5/4 6:43,1.8,2,1.8,2,3.3,2
2016/5/4 6:44,1.8,2,1.8,2,2.9,2
2016/5/4 6:45,1.8,2,1.8,2,3.2,3
2016/5/4 6:46,1.8,2,1.8,2,2.7,3
2016/5/4 6:47,1.8,2,1.9,2,2.6,4
2016/5/4 6:48,1.7,2,1.8,2,2.4,3
2016/5/4 6:49,1.7,2,1.7,2,2.7,2
2016/5/4 6:50,1.9,2,1.9,2,2.7,3
2016/5/4 6:51,1.9,2,1.9,2,3,2
2016/5/4 6:52,1.8,2,1.9,2,2.7,2
2016/5/4 6:53,1.8,2,1.8,2,2.7,2
2016/5/4 6:54,1.8,2,1.8,2,2.5,2
2016/5/4 6:55,1.9,3,1.9,2,3.2,3
2016/5/4 6:56,1.9,3,1.9,2,2.7,3
2016/5/4 6:57,1.9,3,1.9,2,2.1,3
2016/5/4 6:58,2,3,2,3,2.5,3
2016/5/4 6:59,1.9,3,2,3,1.8,3
2016/5/4 7:00,1.9,3,1.9,3,2.2,3
2016/5/4 7:01,1.8,3,1.9,3,2,2
2016/5/4 7:02,1.8,3,1.8,3,2.5,5
2016/5/4 7:03,1.8,3,1.8,3,2.6,5
2016/5/4 7:04,1.7,4,1.8,3,1.4,4
2016/5/4 7:05,1.5,4,1.6,3,1,4
2016/5/4 7:06,1.3,4,1.5,3,0.9,4
2016/5/4 7:07,1.2,4,1.3,3,2.1,2
2016/5/4 7:08,1.2,4,1.2,3,1.9,3
2016/5/4 7:09,1.2,4,1.2,3,1.9,2
2016/5/4 7:10,1.1,4,1.2,3,1.8,3
2016/5/4 7:11,1,4,1.1,3,0.9,5
2016/5/4 7:12,0.9,4,1,3,1.4,6
2016/5/4 7:13,0.9,4,0.9,3,1.5,7
2016/5/4 7:14,0.9,4,0.9,4,1.8,4
2016/5/4 7:15,1,4,1,4,1.8,4
2016/5/4 7:16,1,4,1,4,1.8,3
2016/5/4 7:17,1,4,1,4,1.3,3
2016/5/4 7:18,1,4,1,4,1.5,4
2016/5/4 7:19,1,4,1,4,1.9,4
2016/5/4 7:20,1,4,1,4,1.5,4
2016/5/4 7:21,1.1,4,1.1,4,1.5,5
2016/5/4 7:22,1.1,4,1.1,4,1.5,7
2016/5/4 7:23,1.1,4,1.1,4,1.4,5
2016/5/4 7:24,1,4,1.1,4,1,5
2016/5/4 7:25,0.9,4,1,4,0.3,5
2016/5/4 7:26,0.8,4,0.9,4,0.6,3
2016/5/4 7:27,0.8,5,0.8,4,1.9,5
2016/5/4 7:28,0.9,5,0.9,4,2.1,5
2016/5/4 7:29,0.9,5,0.9,4,2,6
2016/5/4 7:30,0.9,5,0.9,4,2,6
2016/5/4 7:31,0.9,5,0.9,4,2.1,6
2016/5/4 7:32,0.9,5,0.9,4,1.3,5
2016/5/4 7:33,0.9,5,0.9,4,0.9,6
2016/5/4 7:34,0.9,5,0.9,4,1.3,6
2016/5/4 7:35,1,6,1,6,2.4,4
2016/5/4 7:36,1.2,6,1.2,6,2.6,4
2016/5/4 7:37,1.2,5,1.2,6,1.6,4
2016/5/4 7:38,1.1,6,1.2,6,1.1,8
2016/5/4 7:39,1.1,5,1.1,6,1.8,5
2016/5/4 7:40,1.2,5,1.2,6,2.9,6
2016/5/4 7:41,1.2,6,1.2,6,2,6
2016/5/4 7:42,1.2,5,1.2,6,1.9,6
2016/5/4 7:43,1.4,6,1.4,6,2.7,6
2016/5/4 7:44,1.5,6,1.5,6,2.5,6
2016/5/4 7:45,1.4,6,1.5,6,1.3,5
2016/5/4 7:46,1.4,6,1.4,6,3.1,8
2016/5/4 7:47,1.4,6,1.4,6,2.1,8
2016/5/4 7:48,1.5,6,1.5,6,2.1,8
2016/5/4 7:49,1.5,7,1.5,6,1.9,8
2016/5/4 7:50,1.4,7,1.5,6,1.1,9
2016/5/4 7:51,1.3,7,1.4,6,1.6,7
2016/5/4 7:52,1.3,7,1.3,6,1,6
2016/5/4 7:53,1.2,7,1.3,6,1,5
2016/5/4 7:54,1.1,7,1.2,6,1.3,6
2016/5/4 7:55,1.1,7,1.1,6,1,9
2016/5/4 7:56,1,7,1.1,6,1.6,6
2016/5/4 7:57,0.9,7,1,6,2,7
2016/5/4 7:58,0.8,7,0.9,6,1.5,6
2016/5/4 7:59,0.8,7,0.8,7,1.6,7
2016/5/4 8:00,0.7,7,0.8,7,0.6,7
2016/5/4 8:01,0.7,6,0.7,7,0.9,5
2016/5/4 8:02,0.7,7,0.7,7,1.1,9
2016/5/4 8:03,0.6,7,0.7,7,1,16
2016/5/4 8:04,0.7,8,0.7,7,2.1,15
2016/5/4 8:05,0.7,8,0.7,7,0.5,4
2016/5/4 8:06,0.6,9,0.7,7,1.1,13
2016/5/4 8:07,0.6,10,0.6,7,1.3,1
2016/5/4 8:08,0.6,11,0.6,7,1.5,15
2016/5/4 8:09,0.7,13,0.7,7,1.8,16
2016/5/4 8:10,0.7,14,0.7,7,1.6,2
2016/5/4 8:11,0.8,14,0.8,14,1.3,4
2016/5/4 8:12,0.7,15,0.8,14,0.4,2
2016/5/4 8:13,0.7,16,0.7,14,0.4,2
2016/5/4 8:14,0.6,1,0.7,14,1,3
2016/5/4 8:15,0.7,2,0.7,14,1.5,4
2016/5/4 8:16,0.7,3,0.7,14,1.5,4
2016/5/4 8:17,0.7,3,0.7,14,1.4,4
2016/5/4 8:18,0.6,4,0.7,14,1.8,6
2016/5/4 8:19,0.7,4,0.7,14,2.2,8
2016/5/4 8:20,0.7,5,0.7,14,2.2,6
2016/5/4 8:21,0.7,5,0.7,14,1.9,7
2016/5/4 8:22,0.7,5,0.7,15,1.4,2
2016/5/4 8:23,0.9,5,0.9,5,1.8,1
2016/5/4 8:24,0.9,5,0.9,5,1.6,15
2016/5/4 8:25,0.9,4,0.9,5,1.1,3
2016/5/4 8:26,0.9,5,0.9,5,1.6,7
2016/5/4 8:27,0.9,5,0.9,5,1.3,9
2016/5/4 8:28,1,6,1,6,3.3,9
2016/5/4 8:29,1,7,1,6,3,8
2016/5/4 8:30,1,7,1,6,1.5,9
2016/5/4 8:31,1,7,1,6,2.4,10
2016/5/4 8:32,1,7,1.1,7,1.1,6
2016/5/4 8:33,1,7,1,7,1.5,4
2016/5/4 8:34,1,7,1,7,2.2,5
2016/5/4 8:35,1.1,7,1.1,7,2.1,5
2016/5/4 8:36,1.1,6,1.1,7,2.4,6
2016/5/4 8:37,1.2,5,1.2,6,2.5,2
2016/5/4 8:38,1.2,5,1.2,6,2.4,1
2016/5/4 8:39,1.1,4,1.1,6,1.4,6
2016/5/4 8:40,1.1,4,1.1,6,1.3,7
2016/5/4 8:41,1.1,4,1.1,6,2.2,4
2016/5/4 8:42,1.2,4,1.2,6,2.2,5
2016/5/4 8:43,1.2,4,1.2,6,1.6,2
2016/5/4 8:44,1.1,4,1.2,6,1.5,3
2016/5/4 8:45,1.1,4,1.1,6,2.5,6
2016/5/4 8:46,1,4,1.1,6,1.5,6
2016/5/4 8:47,1,5,1.1,5,2.5,8
2016/5/4 8:48,1.2,5,1.2,4,4.8,8
2016/5/4 8:49,1.4,5,1.4,5,4.7,8
2016/5/4 8:50,1.7,6,1.7,6,5,8
2016/5/4 8:51,1.7,6,1.7,6,3.3,8
2016/5/4 8:52,1.9,7,1.9,7,4.2,9
2016/5/4 8:53,2.1,8,2.1,8,3.3,10
2016/5/4 8:54,2.2,8,2.2,8,3.9,10
2016/5/4 8:55,2.3,9,2.3,8,3.5,9
2016/5/4 8:56,2.2,9,2.3,8,0.8,9
2016/5/4 8:57,2.2,9,2.2,8,0.8,8
2016/5/4 8:58,2,9,2.1,8,2.2,8
2016/5/4 8:59,1.8,9,2,8,3.2,7
2016/5/4 9:00,1.8,9,1.8,8,4.8,8
2016/5/4 9:01,1.8,9,1.8,8,5.4,9
2016/5/4 9:02,1.8,9,1.8,8,4.7,9
2016/5/4 9:03,1.8,8,1.8,8,5,7
2016/5/4 9:04,1.8,8,1.8,8,5.1,8
2016/5/4 9:05,1.9,8,1.9,9,4.4,8
2016/5/4 9:06,2.1,8,2.1,9,4.2,9
2016/5/4 9:07,2.3,8,2.3,8,4.2,10
2016/5/4 9:08,2.6,8,2.6,8,6.3,8
2016/5/4 9:09,2.9,9,2.9,9,5.6,10
2016/5/4 9:10,2.9,9,2.9,9,7.1,10
2016/5/4 9:11,3.2,9,3.2,9,8.5,9
2016/5/4 9:12,3.5,9,3.5,9,8.5,9
2016/5/4 9:13,3.8,9,3.8,9,8.5,9
2016/5/4 9:14,4,9,4,9,7.5,10
2016/5/4 9:15,4.1,9,4.1,9,4.7,10
2016/5/4 9:16,4.2,10,4.2,10,6.1,11
2016/5/4 9:17,4.2,10,4.2,10,5.7,10
2016/5/4 9:18,4.1,10,4.2,10,4.7,8
2016/5/4 9:19,4,10,4.1,10,5.1,7
2016/5/4 9:20,4,10,4,10,5.8,10
2016/5/4 9:21,3.6,10,4,10,3.9,9
2016/5/4 9:22,3.3,10,3.6,10,3.5,11
2016/5/4 9:23,2.9,11,3.2,10,3,13
2016/5/4 9:24,2.5,11,2.9,10,3.3,12
2016/5/4 9:25,2.3,11,2.5,10,3,9
2016/5/4 9:26,2.2,11,2.3,10,4.4,9
2016/5/4 9:27,2.2,11,2.3,10,4.2,8
2016/5/4 9:28,2.2,11,2.2,10,6.9,10
2016/5/4 9:29,2.2,11,2.2,10,7.9,9
2016/5/4 9:30,2.4,11,2.4,10,8.1,11
2016/5/4 9:31,2.6,11,2.7,10,7.8,10
2016/5/4 9:32,2.9,10,2.9,10,7,9
2016/5/4 9:33,3,10,3,10,7.7,8
2016/5/4 9:34,3.3,10,3.3,10,7.9,9
2016/5/4 9:35,3.7,10,3.7,10,7.4,8
2016/5/4 9:36,3.8,9,3.8,9,6.3,8
2016/5/4 9:37,3.9,9,3.9,9,6,9
2016/5/4 9:38,3.9,9,4,9,5.6,9
2016/5/4 9:39,4,9,4,9,6.9,8
2016/5/4 9:40,4,9,4,9,9.5,10
2016/5/4 9:41,4,9,4.1,9,8.1,9
2016/5/4 9:42,4,9,4,9,6.8,9
2016/5/4 9:43,4.1,9,4.2,9,7.1,7
2016/5/4 9:44,4.2,9,4.2,9,11,10
2016/5/4 9:45,4.4,9,4.4,9,9.1,8
2016/5/4 9:46,4.5,9,4.5,9,8.4,9
2016/5/4 9:47,4.6,9,4.6,9,7.8,9
2016/5/4 9:48,4.7,9,4.7,9,7,10
2016/5/4 9:49,4.7,9,4.8,9,8.4,10
2016/5/4 9:50,4.5,9,4.7,9,6.5,10
2016/5/4 9:51,4.5,9,4.5,9,7.8,9
2016/5/4 9:52,4.5,9,4.5,9,8.3,9
2016/5/4 9:53,4.6,9,4.6,9,10.5,10
2016/5/4 9:54,4.6,10,4.7,9,9.7,10
2016/5/4 9:55,4.5,10,4.7,9,9.9,10
2016/5/4 9:56,4.5,10,4.6,9,8.2,11
2016/5/4 9:57,4.6,10,4.6,9,7.9,10
2016/5/4 9:58,4.6,10,4.6,9,9,9
2016/5/4 9:59,4.8,10,4.8,10,9.2,9
2016/5/4 10:00,4.9,10,5,10,8.5,9
2016/5/4 10:01,5.2,10,5.2,10,10,9
2016/5/4 10:02,5.5,10,5.5,10,10.6,8
2016/5/4 10:03,5.6,10,5.7,10,9.3,8
2016/5/4 10:04,5.6,9,5.6,10,9.9,9
2016/5/4 10:05,5.4,9,5.6,10,7.1,9
2016/5/4 10:06,5.1,9,5.4,10,4.8,8
2016/5/4 10:07,4.9,9,5.1,10,7.5,9
2016/5/4 10:08,4.8,9,4.9,10,5.8,10
2016/5/4 10:09,4.7,9,4.8,10,7.5,11
2016/5/4 10:10,4.6,9,4.7,10,8.2,9
2016/5/4 10:11,4.3,9,4.6,10,6,9
2016/5/4 10:12,4.2,9,4.2,10,10,10
2016/5/4 10:13,4.2,9,4.2,10,11,9
2016/5/4 10:14,4.1,9,4.3,9,10.5,10
2016/5/4 10:15,4.1,9,4.1,9,4.7,8
2016/5/4 10:16,4.4,9,4.4,9,8.4,10
2016/5/4 10:17,4.5,9,4.5,9,7.9,10
2016/5/4 10:18,4.7,10,4.7,9,8.4,11
2016/5/4 10:19,4.8,10,4.8,10,7,10
2016/5/4 10:20,4.7,10,4.8,10,7.8,9
2016/5/4 10:21,4.7,10,4.7,10,5.4,11
2016/5/4 10:22,4.5,10,4.7,10,5.5,10
2016/5/4 10:23,4,10,4.4,10,3.6,10
2016/5/4 10:24,3.6,10,4,10,4.2,8
2016/5/4 10:25,3.6,10,3.7,10,6.8,9
2016/5/4 10:26,3.5,10,3.6,10,7.7,10
2016/5/4 10:27,3.2,10,3.5,10,6.1,11
2016/5/4 10:28,3.2,10,3.3,10,8.1,8
2016/5/4 10:29,3.2,9,3.2,10,7.1,9
2016/5/4 10:30,3.3,9,3.3,10,8.4,10
2016/5/4 10:31,3.2,9,3.3,10,6.8,10
2016/5/4 10:32,3.2,9,3.2,10,7.8,9
2016/5/4 10:33,3.4,9,3.4,10,7.1,11
2016/5/4 10:34,3.6,9,3.6,10,7.1,10
2016/5/4 10:35,3.8,10,3.8,10,6.5,11
2016/5/4 10:36,3.8,10,3.9,10,6.8,10
2016/5/4 10:37,3.9,10,3.9,10,5.6,9
2016/5/4 10:38,3.9,10,4,10,8.3,8
2016/5/4 10:39,4,10,4.1,10,9.8,8
2016/5/4 10:40,4,10,4.1,10,6.8,10
2016/5/4 10:41,4.3,10,4.3,10,10.6,9
2016/5/4 10:42,4.7,10,4.7,10,10.7,9
2016/5/4 10:43,4.9,9,4.9,10,9.5,9
2016/5/4 10:44,4.9,9,4.9,10,12.4,8
2016/5/4 10:45,5.1,9,5.1,9,10,9
2016/5/4 10:46,5.2,9,5.2,9,9.4,9
2016/5/4 10:47,5.5,9,5.5,9,9.1,9
2016/5/4 10:48,5.5,9,5.5,9,8.4,8
2016/5/4 10:49,5.6,9,5.6,9,9.9,7
2016/5/4 10:50,5.9,8,5.9,8,13.6,8
2016/5/4 10:51,6,9,6,8,10.7,10
2016/5/4 10:52,6.1,8,6.1,8,12.3,8
2016/5/4 10:53,6,8,6,8,11,9
2016/5/4 10:54,6.3,8,6.4,8,12.5,9
2016/5/4 10:55,6.6,8,6.6,8,11.5,9
2016/5/4 10:56,6.5,8,6.6,8,9.8,9
2016/5/4 10:57,6.4,9,6.5,8,10,9
2016/5/4 10:58,6.3,9,6.4,8,8.2,9
2016/5/4 10:59,6.1,9,6.3,8,8.9,9
2016/5/4 11:00,5.8,9,6.1,8,8.7,10
2016/5/4 11:01,5.7,9,5.8,8,11.1,8
2016/5/4 11:02,5.4,9,5.7,8,8.9,11
2016/5/4 11:03,5.4,9,5.5,8,7.2,7
2016/5/4 11:04,4.9,9,5.3,8,6.2,8
2016/5/4 11:05,4.6,9,4.9,8,8.5,10
2016/5/4 11:06,4.4,9,4.6,8,7.1,9
2016/5/4 11:07,4,10,4.3,9,4.9,10
2016/5/4 11:08,3.9,9,3.9,9,7.7,9
2016/5/4 11:09,3.9,10,4,9,7.7,10
2016/5/4 11:10,3.6,10,3.9,9,4.8,10
2016/5/4 11:11,3.3,10,3.6,9,5,10
2016/5/4 11:12,3.3,10,3.3,9,8.9,9
2016/5/4 11:13,3.2,10,3.3,9,6.7,8
2016/5/4 11:14,3.4,10,3.4,9,8.7,8
2016/5/4 11:15,3.3,10,3.4,9,8.5,9
2016/5/4 11:16,3.4,10,3.4,9,7.7,8
2016/5/4 11:17,3.6,10,3.6,10,6.5,9
2016/5/4 11:18,3.8,9,3.8,10,10.1,9
2016/5/4 11:19,3.7,9,3.7,10,7.7,8
2016/5/4 11:20,4.1,9,4.1,9,10.2,9
2016/5/4 11:21,4.3,9,4.3,9,9.8,10
2016/5/4 11:22,4.4,9,4.5,9,9.7,9
2016/5/4 11:23,4.7,9,4.7,9,10.7,9
2016/5/4 11:24,4.7,9,4.7,9,9.2,10
2016/5/4 11:25,4.6,9,4.6,9,9.3,8
2016/5/4 11:26,4.8,9,4.8,9,9.3,9
2016/5/4 11:27,4.8,9,4.9,9,7,9
2016/5/4 11:28,5,9,5,9,11.5,9
2016/5/4 11:29,5.2,9,5.2,9,10.1,8
2016/5/4 11:30,4.9,9,5.1,9,10.9,8
2016/5/4 11:31,5.1,9,5.1,9,12.1,9
2016/5/4 11:32,5.2,9,5.2,9,10.7,9
2016/5/4 11:33,5.1,9,5.2,9,10.1,9
2016/5/4 11:34,5.2,9,5.2,9,9.8,9
2016/5/4 11:35,5.2,9,5.3,9,6.8,9
2016/5/4 11:36,5.2,9,5.3,9,8.6,8
2016/5/4 11:37,5.3,9,5.4,9,11,8